| time (UTC) | temp C | wind direction | speed KPH | gust KPH | rain 1hr cm | rain 24hr cm | rain mn cm | humidity % | barometer mb |
| 20260502121503 | 20 | 204 | 14.5 | 32.2 | 0.00 | 0.00 | 0.00 | 45 | 1015.2 |
| 20260502110005 | 21 | 205 | 14.5 | 33.8 | 0.00 | 0.00 | 0.00 | 41 | 1016.3 |
| 20260502103004 | 21 | 208 | 12.9 | 25.7 | 0.00 | 0.00 | 0.00 | 42 | 1016.5 |
| 20260502101503 | 21 | 207 | 12.9 | 33.8 | 0.00 | 0.00 | 0.00 | 43 | 1016.5 |
| 20260502071503 | 16 | 202 | 6.4 | 11.3 | 0.00 | 0.00 | 0.00 | 56 | 1019.0 |
| 20260502064503 | 15 | 201 | 6.4 | 16.1 | 0.00 | 0.00 | 0.00 | 58 | 1019.1 |
| 20260502063004 | 14 | 207 | 4.8 | 12.9 | 0.00 | 0.00 | 0.00 | 60 | 1019.2 |
| 20260502060004 | 13 | 220 | 6.4 | 14.5 | 0.00 | 0.00 | 0.00 | 62 | 1019.2 |
| 20260502054504 | 13 | 209 | 8.0 | 14.5 | 0.00 | 0.00 | 0.00 | 66 | 1019.3 |
| 20260502051504 | 12 | 194 | 4.8 | 11.3 | 0.00 | 0.00 | 0.00 | 72 | 1019.2 |
| 20260502050004 | 12 | 185 | 4.8 | 8.0 | 0.00 | 0.00 | 0.00 | 71 | 1019.2 |
| 20260502043005 | 11 | 187 | 3.2 | 4.8 | 0.00 | 0.00 | 0.00 | 69 | 1019.2 |
| 20260502040004 | 11 | 187 | 1.6 | 4.8 | 0.00 | 0.00 | 0.00 | 73 | 1019.3 |
| 20260502034504 | 10 | 187 | 3.2 | 8.0 | 0.00 | 0.00 | 0.00 | 73 | 1019.2 |
| 20260502033004 | 10 | 197 | 4.8 | 8.0 | 0.00 | 0.00 | 0.00 | 73 | 1019.3 |
| 20260502030003 | 10 | 198 | 3.2 | 8.0 | 0.00 | 0.00 | 0.00 | 74 | 1019.4 |
| 20260502024504 | 8 | 195 | 0.0 | 0.0 | 0.00 | 0.00 | 0.00 | 75 | 1019.5 |
| 20260502014503 | 10 | 225 | 0.0 | 0.0 | 0.00 | 0.00 | 0.00 | 69 | 1019.8 |
| 20260502013003 | 10 | 225 | 0.0 | 0.0 | 0.00 | 0.00 | 0.00 | 70 | 1019.8 |
| 20260502010003 | 10 | 229 | 0.0 | 0.0 | 0.00 | 0.00 | 0.00 | 67 | 1020.0 |
| 20260502004504 | 10 | 230 | 0.0 | 0.0 | 0.00 | 0.00 | 0.00 | 66 | 1020.1 |
| 20260502000003 | 11 | 246 | 0.0 | 0.0 | 0.00 | 0.00 | 0.00 | 63 | 1020.2 |
| 20260501230004 | 12 | 244 | 0.0 | 0.0 | 0.00 | 0.00 | 0.00 | 59 | 1020.7 |
| 20260501223004 | 13 | 244 | 0.0 | 0.0 | 0.00 | 0.00 | 0.00 | 57 | 1020.4 |
| 20260501211505 | 16 | 205 | 1.6 | 8.0 | 0.00 | 0.00 | 0.00 | 51 | 1020.3 |
| 20260501201504 | 16 | 240 | 4.8 | 8.0 | 0.00 | 0.00 | 0.00 | 56 | 1020.3 |
| 20260501200005 | 16 | 245 | 3.2 | 8.0 | 0.00 | 0.00 | 0.00 | 55 | 1020.3 |
| 20260501184505 | 16 | 255 | 1.6 | 4.8 | 0.00 | 0.00 | 0.00 | 56 | 1019.6 |
| 20260501181504 | 17 | 239 | 3.2 | 8.0 | 0.00 | 0.00 | 0.00 | 51 | 1019.5 |
| 20260501164504 | 21 | 252 | 3.2 | 11.3 | 0.00 | 0.00 | 0.00 | 40 | 1019.5 |
| 20260501161504 | 21 | 228 | 4.8 | 11.3 | 0.00 | 0.00 | 0.00 | 39 | 1019.7 |
| 20260501153005 | 21 | 222 | 8.0 | 14.5 | 0.00 | 0.00 | 0.00 | 42 | 1020.0 |
| 20260501144504 | 23 | 211 | 8.0 | 14.5 | 0.00 | 0.00 | 0.00 | 35 | 1020.4 |
| 20260501143005 | 23 | 214 | 8.0 | 19.3 | 0.00 | 0.00 | 0.00 | 34 | 1020.5 |
| 20260501141505 | 23 | 210 | 8.0 | 16.1 | 0.00 | 0.00 | 0.00 | 35 | 1020.5 |